World > North America > United States > Texas

Hourly Pidcoke, TX Regional Weather

Feedback E-mail the Weather

Quick WX

Pidcoke, TX Weather Maps

°F °C°F °C
Pidcoke Weather Map
UTC Time: 6/25/2022, 20:54
Your Time:

Pidcoke, TX Regional Weather

Expires:202206252100;;181730
ASUS44 KFWD 252015
RWRTX 
NORTH TEXAS HOURLY WEATHER ROUNDUP
NATIONAL WEATHER SERVICE FORT WORTH TX
300 PM CDT SAT JUN 25 2022

NOTE: "FAIR" INDICATES FEW OR NO CLOUDS BELOW 12,000 FEET WITH NO
SIGNIFICANT WEATHER AND/OR OBSTRUCTIONS TO VISIBILITY.


TXZ143>147-156>162-174-175-252100-
CENTRAL TEXAS
  
CITY           SKY/WX    TMP DP  RH WIND       PRES   REMARKS
WACO           FAIR     101  56  22 S14       29.95F HX 100           
WACO-TSTC      SUNNY    100  54  20 S12G21    29.96F HX  98           
WACO-MCGREGOR  FAIR     101  59  24 SE12      29.96F HX 101           
CORSICANA      FAIR      99  56  23 S14G24    29.97F HX  97           
MEXIA          FAIR      97  63  32 SW10G22   29.97F HX  98           
HEARNE         FAIR      98  65  33 SE7       29.97F HX 100           
CAMERON        FAIR      99  57  24 S8        29.96F HX  98           
TEMPLE         FAIR      98  60  28 S15       29.96F HX  98           
KILLEEN        FAIR      99  51  19 S9        29.93F HX  96           
KILLEEN-SKYLRK   N/A    101  58  24 S12G21    29.97F HX 100           
FORT HOOD      FAIR     100  54  20 SW13      29.96F HX  98           
GATESVILLE     FAIR      99  54  22 MISG      29.97F HX  96           
HAMILTON       FAIR      99  51  20 S3        29.99F HX  96           
LAMPASAS       FAIR      99  49  18 SW6         N/A  HX  95           
$$


SKY/WX - Weather  TMP - Temperature  DP - Dew Point  RH - Humidity
WIND - Wind Direction/Speed PRES - Barometric Pressure VSB - Visibility
WCI - Wind Chill Index E13G22 Wind - East Wind 13 mph/Gusts of 22 mph

Trending Headlines

Pidcoke Radar Loop



Pidcoke Quick Facts


National Two Day Weather Forecast


E-mail the Pidcoke Weather Forecast

Voice your opinion or tell us about page issues...